• In Hungary
  • List of Countries
  • For 7 days
  • Water Temperature
  • Satellite Maps
  • Weather Map
  • News
  • Weather Widgets
  • user-avatar
    Login

    Hourly Weather Ascoli Piceno

    Today, 23 January, Tuesday

    Time Temperature Precipitation Wind Pressure Humidity
    00:00 +8°C° 0 mm 2 mps 751 mmHg 72%
    01:00 +7°C° 0 mm 2 mps 751 mmHg 75%
    02:00 +7°C° 0 mm 2 mps 751 mmHg 75%
    03:00 +8°C° 0 mm 1 mps 752 mmHg 76%
    04:00 +8°C° 0 mm 1 mps 752 mmHg 76%
    05:00 +8°C° 0 mm 1 mps 752 mmHg 78%
    06:00 +8°C° 0 mm 1 mps 753 mmHg 79%
    07:00 +7°C° 0 mm 1 mps 753 mmHg 84%
    08:00 +8°C° 0 mm 2 mps 753 mmHg 81%
    09:00 +9°C° 0 mm 2 mps 754 mmHg 78%
    10:00 +10°C° 0 mm 2 mps 755 mmHg 75%
    11:00 +10°C° 0 mm 2 mps 755 mmHg 72%
    12:00 +11°C° 0 mm 3 mps 756 mmHg 69%
    13:00 +13°C° 0 mm 3 mps 756 mmHg 66%
    14:00 +13°C° 0 mm 2 mps 756 mmHg 69%
    15:00 +13°C° 0 mm 2 mps 757 mmHg 71%
    16:00 +12°C° 0 mm 2 mps 757 mmHg 74%
    17:00 +10°C° 0 mm 2 mps 758 mmHg 79%
    18:00 +9°C° 0 mm 2 mps 759 mmHg 84%
    19:00 +8°C° 0 mm 2 mps 759 mmHg 88%
    20:00 +8°C° 0 mm 2 mps 760 mmHg 88%
    21:00 +7°C° 0 mm 2 mps 760 mmHg 87%
    22:00 +7°C° 0 mm 2 mps 760 mmHg 87%
    23:00 +7°C° 0 mm 2 mps 761 mmHg 86%

    Tomorrow, 24 January, Wednesday

    Time Temperature Precipitation Wind Pressure Humidity
    00:00 +7°C° 0 mm 2 mps 761 mmHg 86%
    01:00 +7°C° 0 mm 2 mps 761 mmHg 85%
    02:00 +6°C° 0 mm 2 mps 761 mmHg 83%
    03:00 +6°C° 0 mm 2 mps 762 mmHg 82%
    04:00 +6°C° 0 mm 2 mps 762 mmHg 81%
    05:00 +6°C° 0 mm 2 mps 762 mmHg 78%
    06:00 +6°C° 0 mm 2 mps 762 mmHg 75%
    07:00 +7°C° 0 mm 1 mps 762 mmHg 72%
    08:00 +9°C° 0 mm 1 mps 762 mmHg 65%
    09:00 +10°C° 0 mm 1 mps 762 mmHg 58%
    10:00 +12°C° 0 mm 1 mps 763 mmHg 51%
    11:00 +13°C° 0 mm 1 mps 762 mmHg 49%
    12:00 +14°C° 0 mm 1 mps 762 mmHg 46%
    13:00 +15°C° 0 mm 1 mps 762 mmHg 44%
    14:00 +14°C° 0 mm 1 mps 762 mmHg 49%
    15:00 +14°C° 0 mm 1 mps 762 mmHg 54%
    16:00 +13°C° 0 mm 1 mps 762 mmHg 59%
    17:00 +12°C° 0 mm 1 mps 762 mmHg 63%
    18:00 +11°C° 0 mm 1 mps 762 mmHg 67%
    19:00 +9°C° 0 mm 1 mps 762 mmHg 71%
    20:00 +9°C° 0 mm 1 mps 762 mmHg 71%
    21:00 +9°C° 0 mm 1 mps 762 mmHg 71%
    22:00 +8°C° 0 mm 2 mps 762 mmHg 71%
    23:00 +8°C° 0 mm 2 mps 762 mmHg 71%

    Day after tomorrow, 25 January, Thursday

    Time Temperature Precipitation Wind Pressure Humidity
    00:00 +8°C° 0 mm 2 mps 762 mmHg 72%
    01:00 +8°C° 0 mm 2 mps 762 mmHg 73%
    02:00 +7°C° 0 mm 2 mps 761 mmHg 73%
    03:00 +7°C° 0 mm 2 mps 761 mmHg 74%
    04:00 +7°C° 0 mm 2 mps 761 mmHg 75%
    05:00 +7°C° 0 mm 2 mps 761 mmHg 76%
    06:00 +7°C° 0 mm 2 mps 761 mmHg 76%
    07:00 +7°C° 0 mm 2 mps 761 mmHg 77%
    08:00 +8°C° 0 mm 2 mps 761 mmHg 72%
    09:00 +10°C° 0 mm 2 mps 761 mmHg 67%
    10:00 +13°C° 0 mm 1 mps 761 mmHg 62%
    11:00 +14°C° 0 mm 2 mps 760 mmHg 59%
    12:00 +14°C° 0 mm 2 mps 760 mmHg 55%
    13:00 +15°C° 0 mm 2 mps 759 mmHg 52%
    14:00 +15°C° 0 mm 2 mps 759 mmHg 56%
    15:00 +14°C° 0 mm 2 mps 758 mmHg 60%
    16:00 +14°C° 0 mm 2 mps 758 mmHg 64%
    17:00 +13°C° 0 mm 2 mps 758 mmHg 68%
    18:00 +10°C° 0 mm 2 mps 758 mmHg 73%
    19:00 +9°C° 0 mm 2 mps 758 mmHg 78%
    20:00 +9°C° 0 mm 2 mps 758 mmHg 77%
    21:00 +8°C° 0 mm 2 mps 758 mmHg 77%
    22:00 +8°C° 0 mm 2 mps 757 mmHg 77%
    23:00 +8°C° 0 mm 2 mps 757 mmHg 75%

    26 January, Friday

    Time Temperature Precipitation Wind Pressure Humidity
    00:00 +8°C° 0 mm 2 mps 757 mmHg 73%
    01:00 +8°C° 0 mm 2 mps 757 mmHg 71%
    02:00 +8°C° 0 mm 2 mps 756 mmHg 69%
    03:00 +8°C° 0 mm 2 mps 756 mmHg 67%
    04:00 +7°C° 0 mm 2 mps 755 mmHg 64%
    05:00 +8°C° 0 mm 2 mps 755 mmHg 65%
    06:00 +8°C° 0 mm 2 mps 755 mmHg 66%
    07:00 +8°C° 0 mm 2 mps 755 mmHg 68%
    08:00 +9°C° 0 mm 2 mps 755 mmHg 68%
    09:00 +10°C° 0 mm 2 mps 755 mmHg 69%
    10:00 +13°C° 0 mm 2 mps 755 mmHg 69%
    11:00 +14°C° 0 mm 2 mps 755 mmHg 66%
    12:00 +15°C° 0 mm 2 mps 755 mmHg 63%
    13:00 +15°C° 0 mm 2 mps 754 mmHg 60%
    14:00 +15°C° 0 mm 2 mps 754 mmHg 64%
    15:00 +14°C° 0 mm 2 mps 754 mmHg 68%
    16:00 +14°C° 0 mm 2 mps 754 mmHg 72%
    17:00 +13°C° 0 mm 2 mps 754 mmHg 76%
    18:00 +12°C° 0 mm 2 mps 754 mmHg 80%
    19:00 +10°C° 0 mm 2 mps 754 mmHg 84%
    20:00 +9°C° 0 mm 2 mps 754 mmHg 83%
    21:00 +9°C° 0 mm 2 mps 754 mmHg 82%
    22:00 +9°C° 0 mm 2 mps 755 mmHg 82%
    23:00 +9°C° 0 mm 2 mps 755 mmHg 81%

    27 January, Saturday

    Time Temperature Precipitation Wind Pressure Humidity
    00:00 +9°C° 0 mm 2 mps 755 mmHg 80%
    01:00 +8°C° 0 mm 2 mps 754 mmHg 79%
    02:00 +8°C° 0 mm 2 mps 754 mmHg 79%
    03:00 +8°C° 0 mm 2 mps 754 mmHg 79%
    04:00 +8°C° 0 mm 2 mps 754 mmHg 79%
    05:00 +8°C° 0 mm 2 mps 754 mmHg 79%
    06:00 +8°C° 0 mm 2 mps 755 mmHg 79%
    07:00 +8°C° 0 mm 2 mps 755 mmHg 80%
    08:00 +10°C° 0 mm 1 mps 755 mmHg 75%
    09:00 +12°C° 0 mm 1 mps 755 mmHg 70%
    10:00 +13°C° 0 mm 1 mps 756 mmHg 65%
    11:00 +14°C° 0 mm 1 mps 756 mmHg 64%
    12:00 +15°C° 0 mm 1 mps 756 mmHg 62%
    13:00 +16°C° 0 mm 2 mps 756 mmHg 60%
    14:00 +15°C° 0 mm 2 mps 756 mmHg 64%
    15:00 +15°C° 0 mm 2 mps 756 mmHg 69%
    16:00 +14°C° 0 mm 2 mps 757 mmHg 73%
    17:00 +13°C° 0 mm 2 mps 757 mmHg 79%
    18:00 +12°C° 0 mm 1 mps 758 mmHg 85%
    19:00 +11°C° 0 mm 1 mps 758 mmHg 90%
    20:00 +10°C° 0 mm 1 mps 759 mmHg 91%
    21:00 +9°C° 0 mm 2 mps 759 mmHg 91%
    22:00 +9°C° 0 mm 2 mps 760 mmHg 92%
    23:00 +9°C° 0 mm 2 mps 760 mmHg 91%

    28 January, Sunday

    Time Temperature Precipitation Wind Pressure Humidity
    00:00 +8°C° 0 mm 2 mps 760 mmHg 90%
    01:00 +8°C° 0 mm 2 mps 761 mmHg 90%
    02:00 +8°C° 0 mm 2 mps 761 mmHg 90%
    03:00 +8°C° 0 mm 2 mps 761 mmHg 90%
    04:00 +8°C° 0 mm 2 mps 761 mmHg 90%
    05:00 +8°C° 0 mm 2 mps 761 mmHg 90%
    06:00 +8°C° 0 mm 2 mps 762 mmHg 91%
    07:00 +8°C° 0 mm 2 mps 762 mmHg 91%
    08:00 +9°C° 0 mm 2 mps 763 mmHg 87%
    09:00 +10°C° 0 mm 2 mps 763 mmHg 83%
    10:00 +12°C° 0 mm 2 mps 764 mmHg 79%
    11:00 +13°C° 0 mm 2 mps 764 mmHg 74%
    12:00 +14°C° 0 mm 2 mps 764 mmHg 70%
    13:00 +15°C° 0 mm 2 mps 764 mmHg 65%
    14:00 +15°C° 0 mm 2 mps 764 mmHg 68%
    15:00 +14°C° 0 mm 1 mps 764 mmHg 70%
    16:00 +14°C° 0 mm 1 mps 764 mmHg 72%
    17:00 +13°C° 0 mm 1 mps 764 mmHg 78%
    18:00 +12°C° 0 mm 1 mps 764 mmHg 84%
    19:00 +10°C° 0 mm 1 mps 764 mmHg 90%
    20:00 +10°C° 0 mm 1 mps 765 mmHg 90%
    21:00 +10°C° 0 mm 1 mps 765 mmHg 90%
    22:00 +10°C° 0 mm 1 mps 765 mmHg 90%
    23:00 +9°C° 0 mm 2 mps 765 mmHg 89%
    Show more